Вернуться в каталог

COSMOS 1864

АктивенВоенныеPO
NORAD 18160·PAYLOAD·🇷🇺 Russia

Запущен Jul 6, 1987 с Plesetsk Cosmodrome

Loading…

Ближайшие Пролёты (ближайшие 24 часа)

TLE

СвежийSource: Space-Track

Эпоха: Sep 14, 2026, 08:05 UTC

1 18160U 87057A   26257.33726440  .00000036  00000-0  21619-4 0  9996
2 18160  82.9291  99.9397 0030822 306.7653 226.5809 13.75821942947116

Отслеживайте COSMOS 1864 в реальном времени с AllMySat

Download on the App Store